Content
SEND FEEDBACK

Daily
Averages
Monthly
Summary
United States of America

ST. LOUIS, MISSOURI


Home > North America > United States > Missouri
Elevation: 535 feet     Latitude: 38 45N     Longitude: 090 22W

WEATHER
 
SELECT A DAY
Number of Records: 198,949;   Date Range: 1/1/95 - 9/29/14
 
SHARE

PRINT THIS DATA

[ ← Previous Day ]
WEATHER ALMANAC - MAY 12, 2013
[ Next Day → ]
[ °C ]   °F
Weather ElementAverageHighLow
Temperature51.1 °F63 °F (3:54 pm)37.9 °F (4:54 am)
Dewpoint30.7 °F39 °F (9:54 pm)24.8 °F (11:54 am)
Humidity50.8 %82 % (11:54 pm)25 % (2:54 pm)
Barometer30.20 in30.25 in (9:54 am)30.16 in (5:54 pm)
Wind Speed5.4 mph13.8 mph (2:54 pm)
Wind Gust19.6 mph (1:54 pm)
Weather ElementAverage
Visibility10 mi
Wind DirectionSSW (203.5 °)

Weather ElementTotal
Precipitation---
Heating Degree Days14.6 (Base 65)
Growing Degree Days0.5 (Base 50)
Averaged from 23 records on May 12, 2013
WEATHER CONDITIONS BREAKOUT
WIND DIRECTION BREAKOUT
WEATHER BY HOUR - MAY 12, 2013
[ °C ]   °F
Local TimeTemperatureDewpointHumidityBarometerVisibilityWind DirectionWind SpeedGust SpeedPrecipitationEventsConditions
1:54 AM41.0 °F34.0 °F76 %30.18 in10.0 miWest (260°)3.5 mphClear
2:54 AM39.9 °F33.1 °F77 %30.17 in10.0 miWest (260°)3.5 mphClear
3:54 AM39.9 °F32.0 °F73 %30.18 in10.0 miCalmClear
4:54 AM37.9 °F32.0 °F79 %30.20 in10.0 miSW (220°)3.5 mphClear
5:54 AM37.9 °F30.9 °F76 %30.21 in10.0 miSW (230°)3.5 mphClear
6:54 AM42.1 °F32.0 °F67 %30.21 in10.0 miCalmClear
7:54 AM46.9 °F32.0 °F56 %30.22 in10.0 miWest (270°)3.5 mphClear
8:54 AM52.0 °F30.0 °F43 %30.24 in10.0 miNW (310°)3.5 mphClear
9:54 AM55.0 °F28.0 °F35 %30.25 in10.0 miNW (310°)9.2 mphClear
10:54 AM55.9 °F25.0 °F30 %30.25 in10.0 miNNW (330°)9.2 mphClear
11:54 AM57.2 °F24.8 °F29 %30.23 in10.0 miNNW (330°)12.7 mphClear
12:54 PM60.1 °F26.1 °F27 %30.22 in10.0 miWNW (300°)6.9 mphClear
1:54 PM61.0 °F27.0 °F27 %30.21 in10.0 miWNW (300°)9.2 mph19.6 mphClear
2:54 PM62.1 °F26.1 °F25 %30.20 in10.0 miWNW (300°)13.8 mph18.4 mphClear
3:54 PM63.0 °F27.0 °F26 %30.18 in10.0 miNW (310°)11.5 mph18.4 mphClear
4:54 PM62.1 °F26.1 °F25 %30.17 in10.0 miNW (320°)13.8 mphClear
5:54 PM62.1 °F28.0 °F28 %30.16 in10.0 miNW (310°)8.1 mphClear
6:54 PM60.1 °F27.0 °F28 %30.16 in10.0 miNW (320°)9.2 mphClear
7:54 PM55.0 °F37.0 °F51 %30.16 in10.0 miCalmScattered Clouds
8:54 PM51.1 °F36.0 °F56 %30.17 in10.0 miCalmPartly Cloudy
9:54 PM46.0 °F39.0 °F76 %30.19 in10.0 miCalmClear
10:54 PM44.1 °F37.0 °F76 %30.19 in10.0 miCalmClear
11:54 PM42.1 °F37.0 °F82 %30.19 in10.0 miCalmClear
Hourly data recorded from KSUS, located miles away from St. Louis, Missouri







STORIES FROM OUR PARTNERS